Regional Weather Roundup
Issued by NWS

Home | Current Version | Previous Version | Graphics & Text | Print | Product List | Glossary On
Versions: 1 2 3 4 5 6 7 8 9 10 11 12 13 14 15 16 17 18 19 20 21 22 23 24 25 26 27 28 29 30 31 32 33 34 35 36 37 38 39 40 41 42 43 44 45 46 47 48 49 50
000
ASUS43 KLSX 180757
RWRMO

WEATHER SUMMARY FOR MISSOURI
NATIONAL WEATHER SERVICE SPRINGFIELD MO
200 AM CST MON DEC 18 2017

NOTE: "FAIR" INDICATES FEW OR NO CLOUDS BELOW 12,000 FEET WITH NO
       SIGNIFICANT WEATHER AND/OR OBSTRUCTIONS TO VISIBILITY.
       CURRENT SKY AND/OR WEATHER CONDITIONS ARE NOT AVAILABLE FOR
       CHILLICOTHE AND FARMINGTON.

MOZ001>031-035>038-043-044-053-054-180900-
...NORTHERN AND WESTERN MISSOURI...

CITY           SKY/WX    TMP DP  RH WIND       PRES   REMARKS
KANSAS CTY INT CLOUDY    44  41  89 SW9       30.00F
LEE`S SUMMIT   CLOUDY    43  43 100 SW8       30.03F
ST JOSEPH      CLOUDY    39  39 100 CALM      30.02S FOG
CHILLICOTHE      N/A     44  42  93 SW5       30.01F

$$
MOZ066>068-077>081-088>096-101>105-180900-
...SOUTHWEST MISSOURI...

CITY           SKY/WX    TMP DP  RH WIND       PRES   REMARKS
SPRINGFIELD    CLOUDY    45  44  97 W6        30.07S
JOPLIN         CLOUDY    44  44 100 SW7       30.09S

$$
MOZ032>034-039>042-045>050-055>058-069>072-180900-
...CENTRAL MISSOURI...

CITY           SKY/WX    TMP DP  RH WIND       PRES   REMARKS
COLUMBIA       NOT AVBL
JEFFERSON CITY CLOUDY    47  41  80 SW9       30.06F
ROLLA          CLOUDY    44  44 100 W8        30.07S FOG
SEDALIA        CLOUDY    45  44  97 SW10      30.06S
WARRENSBURG    CLOUDY    43  41  93 S6        30.04S
OSAGE BEACH    CLOUDY    45  43  93 SW5       30.08S

$$
MOZ051-052-059>065-180900-
...EAST CENTRAL MISSOURI...

CITY           SKY/WX    TMP DP  RH WIND       PRES   REMARKS
ST LOUIS INTL  DRIZZLE   48  42  80 W9        30.07R

$$
MOZ072>076-082>087-097>100-106>115-180900-
...SOUTH CENTRAL AND SOUTHEAST MISSOURI...

CITY           SKY/WX    TMP DP  RH WIND       PRES   REMARKS
CAPE GIRARDEAU CLOUDY    45  43  93 S6        30.10S FOG
POPLAR BLUFF   FOG       45  45 100 S9        30.11S VSB 1/4
WEST PLAINS    CLOUDY    46  45  96 SW7       30.08R FOG

$$



USA.gov is the U.S. government's official web portal to all federal, state and local government web resources and services.